[[{"header":{"parameterUnit":"m.s-1","parameterCategory":1,"la1":30.2991,"la2":30.254,"lo1":-89.0895,"lo2":-89.0444,"dy":0.0017,"dx":0.0017,"nx":28,"ny":28,"refTime":"2023-08-30T09:00:00:Z","depth":0,"parameterNumber":2,"parameterNumberName":"U-component_of_WINDS"},"data":[0,0,0,0,0,0,0,0,0,0,0,0,0,0,0,0,0,0,0,0,0,0,0,0,0,0,0,0,0,0,0,0,0,0,0,0,0,0,0,0,0,0,0,0,0,0,0,0,0,0,0,0,0,0,0,0,0,0,1.6705,1.6705,0,1.6743,1.6743,1.6743,1.6746,1.6746,1.6745,1.6745,1.6786,1.6788,1.6789,0,0,0,0,0,0,0,0,0,0,0,0,0,1.664,1.6641,1.6705,1.6706,1.6706,1.6743,1.6743,1.6744,1.6746,1.6745,1.6745,1.6744,1.6786,1.6788,1.679,0,0,0,0,0,0,0,0,0,0,0,0,0,1.6672,1.6641,1.6705,1.6712,1.6712,1.6742,1.6743,1.6744,1.6746,1.6745,1.6745,1.6744,1.6785,1.6788,1.679,1.6817,0,0,1.6797,1.6798,0,0,0,0,0,0,0,0,1.667,1.6674,1.671,1.6711,1.6712,1.6739,1.6735,1.6768,1.6746,1.6733,1.6745,1.6744,1.6771,1.6775,1.6783,1.6819,1.6821,1.6797,1.6798,1.6799,1.68,0,0,0,0,0,0,0,1.6668,1.6673,1.672,1.6711,1.6712,1.6714,1.6718,1.6742,1.6756,1.6735,1.6735,1.6739,1.6772,1.6781,1.6784,1.6821,1.6797,1.6799,1.68,1.6801,1.6883,1.6884,0,0,0,0,0,0,1.6664,1.6671,1.6719,1.6721,1.6689,1.6716,1.672,1.6731,1.6755,1.6758,1.674,1.6739,1.6778,1.6782,1.6786,1.682,1.6799,1.6801,1.6803,1.6882,1.6883,1.6884,0,0,0,0,0,0,1.6662,1.6668,1.6717,1.6696,1.6702,1.6717,1.673,1.6732,1.6741,1.6759,1.6762,1.6746,1.6777,1.6783,1.6809,1.6821,1.6802,1.6805,1.6881,1.6882,1.6883,1.6888,0,0,0,0,0,0,1.666,1.6667,1.6677,1.6696,1.6704,1.6739,1.6731,1.6733,1.6745,1.6744,1.6766,1.6769,1.6777,1.6806,1.6812,1.6824,1.6806,1.688,1.6882,1.6883,1.6887,1.6889,1.6891,0,0,0,0,0,1.6658,1.6677,1.6677,1.6683,1.6715,1.6739,1.6744,1.6752,1.6746,1.6756,1.6768,1.6768,1.6819,1.6809,1.6815,1.6828,1.6879,1.6881,1.6883,1.6886,1.6888,1.6891,0,0,0,0,0,0,1.6659,1.6679,1.668,1.6705,1.672,1.674,1.6753,1.6754,1.6772,1.6771,1.6781,1.6786,1.6813,1.6824,1.6811,1.6857,1.6849,1.6852,1.6849,1.6852,1.6854,1.6851,1.6808,0,0,0,0,0,1.6662,1.6679,1.6696,1.6717,1.6724,1.6737,1.6748,1.6753,1.677,1.6776,1.679,1.6807,1.6827,1.684,1.6859,1.6888,1.6894,1.6901,1.6903,1.6905,1.6908,1.6925,1.6929,1.689,1.689,1.689,0,0,1.6669,1.6682,1.6692,1.6717,1.673,1.6748,1.6743,1.6762,1.6776,1.678,1.6805,1.6816,1.6836,1.6865,1.6878,1.6874,1.692,1.6907,1.6909,1.691,1.6928,1.6931,1.6935,1.6891,1.6891,1.6891,0,0,1.669,1.6701,1.672,1.6733,1.6751,1.676,1.6765,1.6784,1.6791,1.6817,1.682,1.6839,1.6872,1.6887,1.6899,1.6928,1.6929,1.6934,1.6945,1.6962,1.6966,1.6968,1.698,1.6983,1.6936,1.6937,1.6937,0,1.6696,1.6722,1.673,1.675,1.6761,1.6765,1.6785,1.6797,1.6822,1.6831,1.6826,1.687,1.6884,1.6916,1.6923,1.6932,1.6939,1.6931,1.6964,1.6967,1.697,1.6981,1.6985,1.6937,1.6937,1.6937,1.6937,0,1.673,1.6748,1.6762,1.6784,1.6798,1.6818,1.683,1.6843,1.6847,1.6857,1.6885,1.6901,1.6925,1.6933,1.6937,1.6967,1.6964,1.6962,1.6954,1.6974,1.6984,1.6989,1.6938,1.6937,1.6937,1.6937,0,0,1.6751,1.6779,1.6784,1.6795,1.6816,1.6832,1.6853,1.6875,1.6886,1.6904,1.6923,1.6952,1.695,1.6964,1.6971,1.6986,1.7009,1.6982,1.6983,1.6987,1.7044,1.7045,1.705,1.701,1.7011,1.7012,1.7042,0,1.6775,1.6811,1.6819,1.6851,1.6869,1.6874,1.6892,1.6908,1.6919,1.6937,1.6949,1.697,1.6966,1.6974,1.6989,1.7003,1.702,1.7001,1.7029,1.703,1.7024,1.7055,1.7056,1.7084,1.7046,1.7047,1.7047,0,1.6808,1.6825,1.6858,1.6879,1.6887,1.6903,1.6925,1.6942,1.6961,1.6968,1.6984,1.6989,1.7013,1.7004,1.7038,1.7025,1.7037,1.7046,1.7047,1.705,1.704,1.7059,1.7093,1.7097,1.7054,1.7053,1.7053,0,1.6821,1.6853,1.6877,1.6887,1.6911,1.6923,1.6934,1.6952,1.6966,1.6985,1.6994,1.7017,1.7029,1.7048,1.706,1.7052,1.7093,1.7085,1.7101,1.71,1.7109,1.7108,1.7145,1.7117,1.7117,1.7117,1.7116,0,1.6847,1.6867,1.6884,1.6899,1.6922,1.6932,1.6956,1.6967,1.6984,1.7003,1.7009,1.7026,1.7041,1.7061,1.7071,1.7099,1.7104,1.7111,1.7114,1.7111,1.711,1.7119,1.7117,1.7118,1.7117,1.7117,1.7117,0,1.6866,1.6877,1.6904,1.6925,1.6931,1.6948,1.6966,1.6982,1.6993,1.7016,1.7023,1.704,1.7064,1.7078,1.7109,1.7116,1.7147,1.7148,1.714,1.7141,1.7156,1.7154,1.72,1.7207,1.7173,1.7174,1.7174,0,1.6881,1.6897,1.692,1.6932,1.6943,1.6963,1.6976,1.6988,1.7002,1.7026,1.704,1.7064,1.7084,1.7123,1.7139,1.7164,1.7166,1.718,1.717,1.7167,1.7167,1.7166,1.7168,1.7182,1.7182,1.7183,1.7183,0,1.6908,1.6914,1.6932,1.6953,1.6969,1.6987,1.7004,1.7015,1.7029,1.7046,1.707,1.7085,1.7117,1.7142,1.7167,1.7181,1.7185,1.7186,1.7191,1.7188,1.7183,1.7187,1.7145,1.7185,1.7185,1.7185,1.7184,1.7184,1.6926,1.6941,1.6959,1.6981,1.6995,1.7012,1.7027,1.704,1.7061,1.7086,1.7092,1.7118,1.714,1.7174,1.7189,1.721,1.7208,1.7215,1.7217,1.7218,1.7219,1.7179,1.7215,1.7215,1.7215,1.7215,1.7215,0,1.6954,1.6967,1.6986,1.701,1.7027,1.7029,1.7049,1.7063,1.7086,1.7104,1.7124,1.7153,1.7178,1.7197,1.7222,1.7236,1.7239,1.7242,1.7242,1.7245,1.7219,1.7213,1.724,1.724,1.724,1.724,1.724,1.724,1.6971,1.6996,1.7003,1.7036,1.7049,1.7074,1.7085,1.7101,1.7116,1.7148,1.7168,1.718,1.7199,1.7227,1.725,1.7255,1.7265,1.7268,1.7274,1.7249,1.7247,1.7244,1.7238,1.727,1.727,1.7297,1.7298,1.7298]},{"header":{"parameterUnit":"m.s-1","parameterCategory":1,"la1":30.2991,"la2":30.254,"lo1":-89.0895,"lo2":-89.0444,"dy":0.0017,"dx":0.0017,"nx":28,"ny":28,"refTime":"2023-08-30T09:00:00:Z","depth":0,"parameterNumber":3,"parameterNumberName":"V-component_of_WINDS"},"data":[0,0,0,0,0,0,0,0,0,0,0,0,0,0,0,0,0,0,0,0,0,0,0,0,0,0,0,0,0,0,0,0,0,0,0,0,0,0,0,0,0,0,0,0,0,0,0,0,0,0,0,0,0,0,0,0,0,0,-3.2669,-3.267,0,-3.2772,-3.2773,-3.2774,-3.2856,-3.2857,-3.2858,-3.2859,-3.2962,-3.2964,-3.2966,0,0,0,0,0,0,0,0,0,0,0,0,0,-3.2545,-3.2546,-3.2669,-3.267,-3.2672,-3.2772,-3.2773,-3.2775,-3.2856,-3.2857,-3.2858,-3.2859,-3.2961,-3.2964,-3.2966,0,0,0,0,0,0,0,0,0,0,0,0,0,-3.2618,-3.2547,-3.2669,-3.2724,-3.2731,-3.2771,-3.2773,-3.2775,-3.2856,-3.2857,-3.2859,-3.286,-3.2961,-3.2964,-3.2966,-3.296,0,0,-3.2976,-3.2977,0,0,0,0,0,0,0,0,-3.2614,-3.2622,-3.2715,-3.2721,-3.2728,-3.2803,-3.2767,-3.2837,-3.2856,-3.2808,-3.2859,-3.286,-3.2908,-3.2915,-3.2932,-3.2965,-3.2969,-3.2976,-3.2978,-3.2979,-3.298,0,0,0,0,0,0,0,-3.2609,-3.2619,-3.271,-3.2716,-3.2724,-3.2745,-3.2757,-3.2781,-3.285,-3.2813,-3.2819,-3.283,-3.2912,-3.2929,-3.2935,-3.2971,-3.2976,-3.2978,-3.298,-3.2981,-3.3007,-3.3006,0,0,0,0,0,0,-3.2595,-3.2614,-3.2706,-3.2713,-3.2673,-3.2746,-3.2759,-3.2777,-3.285,-3.2862,-3.2829,-3.2833,-3.2923,-3.2931,-3.2939,-3.2938,-3.2979,-3.2982,-3.2983,-3.3008,-3.3007,-3.3006,0,0,0,0,0,0,-3.2592,-3.2602,-3.2702,-3.2665,-3.2679,-3.2747,-3.2766,-3.2779,-3.2796,-3.2862,-3.2875,-3.2833,-3.2924,-3.2935,-3.2955,-3.2943,-3.2983,-3.2986,-3.301,-3.3008,-3.3007,-3.2935,0,0,0,0,0,0,-3.2588,-3.2601,-3.2598,-3.2664,-3.2681,-3.2716,-3.2766,-3.278,-3.2801,-3.2808,-3.287,-3.2881,-3.2926,-3.295,-3.2958,-3.2947,-3.2988,-3.3011,-3.3009,-3.3007,-3.2938,-3.2931,-3.2924,0,0,0,0,0,-3.2583,-3.2573,-3.2598,-3.2608,-3.2679,-3.2715,-3.2725,-3.2777,-3.28,-3.2798,-3.2842,-3.2879,-3.2943,-3.2952,-3.2961,-3.2951,-3.3012,-3.301,-3.3007,-3.2942,-3.2932,-3.2924,0,0,0,0,0,0,-3.2501,-3.2582,-3.2611,-3.2621,-3.2661,-3.2729,-3.2728,-3.2765,-3.2798,-3.2803,-3.2867,-3.288,-3.2894,-3.2925,-3.2933,-3.2951,-3.2983,-3.2982,-3.293,-3.2921,-3.2914,-3.2906,-3.299,0,0,0,0,0,-3.2485,-3.2507,-3.2577,-3.2579,-3.2598,-3.266,-3.2677,-3.2715,-3.2758,-3.2775,-3.2819,-3.286,-3.289,-3.2907,-3.2938,-3.2944,-3.296,-3.2942,-3.2935,-3.2929,-3.2927,-3.2936,-3.293,-3.2998,-3.2998,-3.2998,0,0,-3.245,-3.2497,-3.2507,-3.2564,-3.2599,-3.2622,-3.2673,-3.2694,-3.2711,-3.2778,-3.28,-3.2835,-3.2884,-3.2898,-3.2907,-3.2924,-3.2913,-3.2926,-3.292,-3.2922,-3.2933,-3.2926,-3.292,-3.2996,-3.2997,-3.2997,0,0,-3.2399,-3.2436,-3.2444,-3.2479,-3.2533,-3.2574,-3.2576,-3.264,-3.2666,-3.269,-3.2741,-3.2764,-3.2812,-3.2846,-3.287,-3.2837,-3.2873,-3.2845,-3.2807,-3.2815,-3.281,-3.2805,-3.2795,-3.279,-3.2843,-3.2843,-3.2843,0,-3.2349,-3.2385,-3.2443,-3.2462,-3.2486,-3.255,-3.2559,-3.259,-3.265,-3.2666,-3.2686,-3.2751,-3.2788,-3.2813,-3.2805,-3.2822,-3.2827,-3.2837,-3.2806,-3.2802,-3.2799,-3.2789,-3.2785,-3.2839,-3.284,-3.284,-3.2841,0,-3.2322,-3.2346,-3.2346,-3.2405,-3.2429,-3.2443,-3.2504,-3.2522,-3.2559,-3.2599,-3.2624,-3.2673,-3.2716,-3.2724,-3.2759,-3.2755,-3.2764,-3.2794,-3.2827,-3.2787,-3.278,-3.2777,-3.2834,-3.2835,-3.2836,-3.2837,0,0,-3.2218,-3.2312,-3.2311,-3.234,-3.2406,-3.2426,-3.2444,-3.2487,-3.2503,-3.2543,-3.256,-3.2603,-3.2632,-3.2659,-3.2698,-3.2705,-3.2678,-3.2734,-3.2737,-3.2723,-3.2679,-3.2656,-3.2651,-3.2704,-3.2703,-3.2703,-3.2675,0,-3.2178,-3.2214,-3.2269,-3.2287,-3.2311,-3.2374,-3.239,-3.2433,-3.2472,-3.2499,-3.2542,-3.2572,-3.2607,-3.2624,-3.2634,-3.2679,-3.267,-3.2682,-3.2721,-3.2721,-3.2706,-3.2647,-3.2622,-3.2593,-3.2672,-3.2672,-3.2671,0,-3.2134,-3.2174,-3.2194,-3.2262,-3.2274,-3.2287,-3.2334,-3.2358,-3.2409,-3.2437,-3.247,-3.2514,-3.2538,-3.2569,-3.2603,-3.261,-3.263,-3.2655,-3.2655,-3.2661,-3.2693,-3.265,-3.2585,-3.258,-3.2667,-3.2667,-3.2668,0,-3.2059,-3.2117,-3.2137,-3.216,-3.2238,-3.2247,-3.228,-3.2332,-3.2356,-3.2397,-3.2413,-3.2455,-3.2478,-3.2511,-3.2566,-3.2583,-3.2595,-3.263,-3.262,-3.2618,-3.2618,-3.2617,-3.2555,-3.2631,-3.2631,-3.2631,-3.2631,0,-3.2007,-3.2018,-3.2105,-3.2117,-3.2132,-3.2196,-3.2209,-3.2248,-3.2295,-3.2317,-3.2374,-3.2393,-3.2465,-3.2494,-3.2537,-3.2561,-3.257,-3.2594,-3.2606,-3.2589,-3.2586,-3.2602,-3.2606,-3.263,-3.263,-3.263,-3.263,0,-3.1924,-3.1982,-3.201,-3.2083,-3.2102,-3.211,-3.2173,-3.2189,-3.2233,-3.226,-3.2271,-3.2339,-3.2377,-3.2436,-3.2489,-3.2519,-3.2534,-3.2553,-3.2517,-3.2524,-3.2511,-3.2512,-3.2457,-3.2453,-3.253,-3.2529,-3.2529,0,-3.1887,-3.1897,-3.1973,-3.1993,-3.2024,-3.2054,-3.208,-3.2145,-3.2169,-3.223,-3.2239,-3.2281,-3.2317,-3.2374,-3.2429,-3.2472,-3.2492,-3.247,-3.2498,-3.2483,-3.2493,-3.2492,-3.2494,-3.2463,-3.2462,-3.2461,-3.246,0,-3.1816,-3.1846,-3.188,-3.1926,-3.1956,-3.1995,-3.2037,-3.205,-3.2124,-3.2149,-3.2188,-3.2217,-3.2274,-3.2315,-3.2366,-3.2401,-3.2443,-3.2451,-3.2451,-3.2434,-3.2413,-3.2425,-3.2499,-3.2451,-3.2452,-3.2453,-3.2453,-3.2454,-3.1755,-3.1768,-3.1825,-3.1863,-3.1902,-3.1941,-3.196,-3.2008,-3.2042,-3.2094,-3.213,-3.2168,-3.2222,-3.2295,-3.2329,-3.236,-3.2378,-3.2377,-3.2377,-3.2376,-3.2371,-3.2409,-3.2369,-3.2369,-3.237,-3.237,-3.237,0,-3.1688,-3.1728,-3.1763,-3.1821,-3.1851,-3.1891,-3.194,-3.1963,-3.1996,-3.2043,-3.2079,-3.2126,-3.2168,-3.2228,-3.2274,-3.2288,-3.2309,-3.2298,-3.2297,-3.2305,-3.2351,-3.2347,-3.2281,-3.2281,-3.2281,-3.2281,-3.2281,-3.2281,-3.1656,-3.1681,-3.1718,-3.1764,-3.1805,-3.1843,-3.1868,-3.1905,-3.1944,-3.1994,-3.2029,-3.2069,-3.2122,-3.2174,-3.2214,-3.2231,-3.2246,-3.2229,-3.2252,-3.2293,-3.2302,-3.2309,-3.2306,-3.2232,-3.2232,-3.2204,-3.2203,-3.2203]}]]